Вернуться в каталог

TELECOM 2D

АктивенСвязьGEO
NORAD 24209·PAYLOAD·🇫🇷 France

Запущен Aug 8, 1996 с Guiana Space Centre

Loading…

TLE

СвежийSource: Space-Track

Эпоха: Sep 14, 2026, 10:31 UTC

1 24209U 96044B   26257.43846255 -.00000020  00000-0  00000-0 0  9992
2 24209  13.1849  23.8406 0012590  27.0624   2.7789  0.98446331109434

Отслеживайте TELECOM 2D в реальном времени с AllMySat

Download on the App Store